TimePST,TemperatureF,Dew PointF,Humidity,Sea Level PressureIn,VisibilityMPH,Wind Direction,Wind SpeedMPH,Gust SpeedMPH,PrecipitationIn,Events,Conditions,WindDirDegrees,DateUTC
12:15 AM,28.4,21.2,74,30.25,10.0,North,5.8,-,N/A,,Clear,350,2014-01-10 08:15:00
12:35 AM,26.6,21.2,80,30.25,10.0,NNW,3.5,-,N/A,,Clear,330,2014-01-10 08:35:00
12:55 AM,30.2,23.0,75,30.24,10.0,NNW,4.6,-,N/A,,Clear,330,2014-01-10 08:55:00
1:15 AM,30.2,21.2,69,30.25,10.0,North,4.6,-,N/A,,Clear,360,2014-01-10 09:15:00
1:35 AM,30.2,21.2,69,30.25,10.0,WSW,4.6,-,N/A,,Clear,240,2014-01-10 09:35:00
1:55 AM,32.0,21.2,64,30.25,10.0,NNW,4.6,-,N/A,,Clear,330,2014-01-10 09:55:00
2:15 AM,33.8,21.2,60,30.25,10.0,WNW,4.6,-,N/A,,Clear,300,2014-01-10 10:15:00
2:35 AM,35.6,21.2,56,30.24,10.0,NNW,8.1,-,N/A,,Clear,340,2014-01-10 10:35:00
2:55 AM,33.8,19.4,56,30.24,10.0,West,8.1,-,N/A,,Clear,280,2014-01-10 10:55:00
3:15 AM,33.8,19.4,56,30.24,10.0,Calm,Calm,-,N/A,,Clear,0,2014-01-10 11:15:00
3:35 AM,33.8,19.4,56,30.24,10.0,Calm,Calm,-,N/A,,Clear,0,2014-01-10 11:35:00
3:55 AM,30.2,17.6,60,30.24,10.0,NW,4.6,-,N/A,,Clear,320,2014-01-10 11:55:00
4:15 AM,30.2,17.6,60,30.23,10.0,North,3.5,-,N/A,,Clear,10,2014-01-10 12:15:00
4:35 AM,30.2,17.6,60,30.24,10.0,Calm,Calm,-,N/A,,Clear,0,2014-01-10 12:35:00
4:55 AM,28.4,17.6,64,30.24,10.0,NW,4.6,-,N/A,,Clear,310,2014-01-10 12:55:00
5:15 AM,30.2,17.6,60,30.24,10.0,NNW,4.6,-,N/A,,Clear,340,2014-01-10 13:15:00
5:35 AM,30.2,17.6,60,30.25,10.0,North,6.9,-,N/A,,Clear,360,2014-01-10 13:35:00
5:55 AM,32.0,15.8,51,30.26,10.0,West,5.8,-,N/A,,Clear,280,2014-01-10 13:55:00
6:15 AM,32.0,15.8,51,30.27,10.0,NW,5.8,-,N/A,,Clear,310,2014-01-10 14:15:00
6:35 AM,32.0,15.8,51,30.27,10.0,North,5.8,-,N/A,,Clear,360,2014-01-10 14:35:00
6:55 AM,32.0,14.0,48,30.27,10.0,WNW,3.5,-,N/A,,Clear,300,2014-01-10 14:55:00
7:15 AM,32.0,14.0,48,30.28,10.0,West,5.8,-,N/A,,Clear,280,2014-01-10 15:15:00
7:35 AM,32.0,14.0,48,30.28,10.0,Calm,Calm,-,N/A,,Clear,0,2014-01-10 15:35:00
7:55 AM,32.0,15.8,51,30.27,10.0,WNW,4.6,-,N/A,,Clear,300,2014-01-10 15:55:00
8:15 AM,37.4,15.8,41,30.27,10.0,West,8.1,-,N/A,,Clear,270,2014-01-10 16:15:00
8:35 AM,42.8,15.8,34,30.28,10.0,Calm,Calm,-,N/A,,Clear,0,2014-01-10 16:35:00
8:55 AM,48.2,14.0,25,30.29,10.0,Calm,Calm,-,N/A,,Clear,0,2014-01-10 16:55:00
9:15 AM,50.0,14.0,24,30.30,10.0,WNW,4.6,-,N/A,,Clear,290,2014-01-10 17:15:00
9:35 AM,51.8,15.8,24,30.30,10.0,Calm,Calm,-,N/A,,Clear,0,2014-01-10 17:35:00
9:55 AM,53.6,15.8,22,30.30,10.0,NNW,4.6,-,N/A,,Clear,330,2014-01-10 17:55:00
10:15 AM,57.2,15.8,20,30.30,10.0,NNE,4.6,-,N/A,,Clear,30,2014-01-10 18:15:00
10:35 AM,59.0,15.8,19,30.29,10.0,NNW,4.6,-,N/A,,Clear,330,2014-01-10 18:35:00
10:55 AM,59.0,15.8,19,30.28,10.0,Calm,Calm,-,N/A,,Clear,0,2014-01-10 18:55:00
11:15 AM,59.0,14.0,17,30.27,10.0,Calm,Calm,-,N/A,,Clear,0,2014-01-10 19:15:00
11:35 AM,59.0,14.0,17,30.26,10.0,North,4.6,-,N/A,,Clear,360,2014-01-10 19:35:00
11:55 AM,59.0,15.8,19,30.24,10.0,West,4.6,-,N/A,,Clear,280,2014-01-10 19:55:00
12:15 PM,60.8,15.8,17,30.24,10.0,NNW,10.4,-,N/A,,Clear,330,2014-01-10 20:15:00
12:35 PM,60.8,15.8,17,30.23,10.0,North,6.9,-,N/A,,Clear,10,2014-01-10 20:35:00
12:55 PM,60.8,15.8,17,30.21,10.0,NNW,9.2,-,N/A,,Clear,330,2014-01-10 20:55:00
1:15 PM,60.8,14.0,16,30.20,10.0,North,5.8,-,N/A,,Clear,360,2014-01-10 21:15:00
1:35 PM,60.8,14.0,16,30.19,10.0,NW,8.1,-,N/A,,Clear,310,2014-01-10 21:35:00
1:55 PM,62.6,14.0,15,30.18,10.0,NNW,9.2,-,N/A,,Clear,330,2014-01-10 21:55:00
2:15 PM,60.8,14.0,16,30.18,10.0,NNW,8.1,-,N/A,,Clear,330,2014-01-10 22:15:00
2:35 PM,60.8,14.0,16,30.18,10.0,North,11.5,17.3,N/A,,Clear,360,2014-01-10 22:35:00
2:55 PM,59.0,14.0,17,30.18,10.0,NNW,11.5,-,N/A,,Clear,340,2014-01-10 22:55:00
3:15 PM,57.2,14.0,18,30.19,10.0,NNW,12.7,-,N/A,,Clear,340,2014-01-10 23:15:00
3:35 PM,57.2,15.8,20,30.20,10.0,North,12.7,18.4,N/A,,Clear,350,2014-01-10 23:35:00
3:55 PM,55.4,17.6,23,30.22,10.0,NW,11.5,-,N/A,,Clear,320,2014-01-10 23:55:00
4:15 PM,51.8,19.4,28,30.23,10.0,WNW,10.4,-,N/A,,Clear,300,2014-01-11 00:15:00
4:35 PM,50.0,19.4,30,30.23,10.0,WNW,8.1,-,N/A,,Clear,300,2014-01-11 00:35:00
4:55 PM,46.4,19.4,34,30.24,10.0,West,8.1,-,N/A,,Clear,280,2014-01-11 00:55:00
5:15 PM,44.6,19.4,37,30.24,10.0,West,9.2,-,N/A,,Clear,270,2014-01-11 01:15:00
5:35 PM,42.8,21.2,42,30.25,10.0,West,9.2,-,N/A,,Clear,270,2014-01-11 01:35:00
5:55 PM,42.8,21.2,42,30.25,10.0,West,9.2,-,N/A,,Clear,270,2014-01-11 01:55:00
6:15 PM,41.0,21.2,45,30.26,10.0,West,6.9,-,N/A,,Clear,270,2014-01-11 02:15:00
6:35 PM,39.2,21.2,49,30.27,10.0,West,5.8,-,N/A,,Clear,280,2014-01-11 02:35:00
6:55 PM,39.2,21.2,49,30.28,10.0,WNW,3.5,-,N/A,,Clear,300,2014-01-11 02:55:00
7:15 PM,41.0,21.2,45,30.28,10.0,West,10.4,-,N/A,,Clear,260,2014-01-11 03:15:00
7:35 PM,39.2,23.0,52,30.28,10.0,West,8.1,-,N/A,,Clear,280,2014-01-11 03:35:00
7:55 PM,37.4,23.0,56,30.28,10.0,West,5.8,-,N/A,,Clear,280,2014-01-11 03:55:00
8:15 PM,35.6,21.2,56,30.29,10.0,WNW,3.5,-,N/A,,Clear,300,2014-01-11 04:15:00
8:35 PM,35.6,23.0,60,30.29,10.0,West,5.8,-,N/A,,Clear,270,2014-01-11 04:35:00
8:55 PM,35.6,23.0,60,30.30,10.0,Calm,Calm,-,N/A,,Clear,0,2014-01-11 04:55:00
9:15 PM,33.8,21.2,60,30.30,10.0,NW,4.6,-,N/A,,Clear,310,2014-01-11 05:15:00
9:35 PM,32.0,21.2,64,30.31,10.0,Calm,Calm,-,N/A,,Clear,0,2014-01-11 05:35:00
9:55 PM,32.0,21.2,64,30.31,10.0,Calm,Calm,-,N/A,,Clear,0,2014-01-11 05:55:00
10:15 PM,30.2,19.4,64,30.31,10.0,North,4.6,-,N/A,,Clear,350,2014-01-11 06:15:00
10:35 PM,28.4,19.4,69,30.31,10.0,North,3.5,-,N/A,,Clear,10,2014-01-11 06:35:00
10:55 PM,28.4,19.4,69,30.31,10.0,Calm,Calm,-,N/A,,Clear,0,2014-01-11 06:55:00
11:15 PM,26.6,17.6,69,30.31,10.0,North,4.6,-,N/A,,Clear,10,2014-01-11 07:15:00
11:35 PM,28.4,19.4,69,30.31,10.0,WNW,4.6,-,N/A,,Clear,300,2014-01-11 07:35:00
11:55 PM,24.8,17.6,74,30.31,10.0,NNE,3.5,-,N/A,,Clear,20,2014-01-11 07:55:00